Weather History for Staunton, VA

Change the Weather History Date:

Monday, December 24, 2012

  Actual Average Record
Temperature  
Mean Temperature 30 °F -  
Max Temperature 35 °F 44 °F 62 °F (2005)
Min Temperature 24 °F 24 °F 15 °F (2010)
Degree Days  
Heating Degree Days 36    
Moisture  
Dew Point 30 °F    
Average Humidity 88    
Maximum Humidity 95    
Minimum Humidity 67    
Precipitation  
Precipitation 0.18 in - - ()
Sea Level Pressure  
Sea Level Pressure 29.95 in    
Wind  
Wind Speed 0 mph (NNW)    
Max Wind Speed 4 mph    
Max Gust Speed -    
Visibility 5 miles    
Events Rain , Snow    
Averages and records for this station are not official NWS values.
T = Trace of Precipitation, MM = Missing Value Source: NWS Daily Summary

Daily Weather History Graph

Daily Weather History Graph

Search for Another Location

Airport:

Trip Planner

Search our weather history database for the weather conditions in past years. The results will help you decide how hot, cold, wet, or windy it might be!

Date:

Astronomy

Dec. 24, 2012 Rise Set
Actual Time 7:30 AM EST 5:00 PM EST
Civil Twilight 7:00 AM EST 5:30 PM EST
Nautical Twilight 6:27 AM EST 6:03 PM EST
Astronomical Twilight 5:55 AM EST 6:35 PM EST
Moon 2:25 PM EST (12/24) 4:08 AM EST (12/24)
Length of Visible Light 10h 29m
Length of Day
9h 30m
Waxing Gibbous, 88% of the Moon is Illuminated
Dec 24
Waxing Gibbous
Dec 28
Full
Jan 4
Last Quarter
Jan 11
New
Jan 18
First Quarter

Hourly Weather History & Observations

Time (EST) Temp. Windchill Dew Point Humidity Pressure Visibility Wind Dir Wind Speed Gust Speed Precip Events Conditions
12:15 AM 34.0 °F - 23.9 °F 67% 29.98 in 10.0 mi Calm Calm - N/A   Clear
12:35 AM 33.3 °F - 24.4 °F 70% 29.98 in 10.0 mi Calm Calm - N/A   Clear
12:55 AM 32.5 °F - 24.1 °F 71% 29.98 in 10.0 mi Calm Calm - N/A   Clear
1:15 AM 31.3 °F - 24.1 °F 75% 29.97 in 10.0 mi Calm Calm - N/A   Clear
1:35 AM 30.4 °F - 24.1 °F 77% 29.97 in 10.0 mi Calm Calm - N/A   Clear
1:55 AM 28.2 °F - 23.0 °F 81% 29.98 in 10.0 mi Calm Calm - N/A   Clear
2:15 AM 29.7 °F - 23.9 °F 79% 29.98 in 10.0 mi Calm Calm - N/A   Clear
2:35 AM 28.6 °F - 22.6 °F 78% 29.99 in 10.0 mi Calm Calm - N/A   Clear
2:55 AM 28.9 °F - 23.4 °F 80% 29.99 in 10.0 mi Calm Calm - N/A   Clear
3:15 AM 30.0 °F - 23.2 °F 76% 29.99 in 10.0 mi Calm Calm - N/A   Clear
3:35 AM 27.3 °F - 22.3 °F 81% 29.98 in 10.0 mi Calm Calm - N/A   Clear
3:55 AM 27.5 °F - 23.2 °F 84% 29.99 in 10.0 mi Calm Calm - N/A   Clear
4:15 AM 27.1 °F - 22.3 °F 82% 30.00 in 10.0 mi Calm Calm - N/A   Clear
4:35 AM 26.4 °F - 22.3 °F 84% 29.99 in 10.0 mi Calm Calm - N/A   Clear
4:55 AM 26.6 °F - 22.5 °F 84% 30.00 in 10.0 mi Calm Calm - N/A   Clear
5:15 AM 27.3 °F - 22.3 °F 81% 29.99 in 10.0 mi Calm Calm - N/A   Clear
5:35 AM 25.2 °F - 21.6 °F 86% 29.99 in 10.0 mi Calm Calm - N/A   Clear
5:55 AM 25.5 °F - 21.2 °F 84% 29.99 in 10.0 mi Calm Calm - N/A   Clear
6:15 AM 27.9 °F - 23.0 °F 82% 29.98 in 10.0 mi Calm Calm - N/A   Clear
6:35 AM 24.8 °F - 21.2 °F 86% 29.99 in 10.0 mi Calm Calm - N/A   Clear
7:15 AM 28.4 °F - 23.9 °F 83% 30.00 in 10.0 mi Calm Calm - N/A   Mostly Cloudy
7:35 AM 29.3 °F - 24.4 °F 82% 29.99 in 10.0 mi Calm Calm - N/A   Overcast
7:55 AM 29.3 °F - 25.3 °F 85% 30.01 in 10.0 mi Calm Calm - N/A   Overcast
8:15 AM 30.7 °F - 26.6 °F 85% 30.00 in 10.0 mi Calm Calm - N/A   Overcast
8:35 AM 31.6 °F - 26.6 °F 82% 30.01 in 10.0 mi Calm Calm - N/A   Overcast
8:55 AM 32.2 °F - 27.3 °F 82% 30.00 in 10.0 mi Calm Calm - N/A   Overcast
9:15 AM 33.1 °F - 28.2 °F 82% 30.02 in 10.0 mi Calm Calm - N/A   Overcast
9:35 AM 33.8 °F - 28.4 °F 81% 30.03 in 7.0 mi Calm Calm - N/A Snow Light Snow
9:55 AM 33.8 °F - 29.8 °F 85% 30.04 in 4.0 mi Calm Calm - N/A Snow Light Snow
10:15 AM 34.7 °F 31.8 °F 31.3 °F 87% 30.05 in 3.0 mi NW 3.5 mph - 0.02 in Snow Light Snow
10:35 AM 34.3 °F - 31.8 °F 90% 30.04 in 1.2 mi Calm Calm - 0.02 in Snow Light Snow
10:55 AM 34.2 °F - 32.0 °F 92% 30.02 in 1.2 mi Calm Calm - 0.02 in Snow Light Snow
11:15 AM 35.1 °F - 32.5 °F 91% 30.01 in 5.0 mi Calm Calm - 0.02 in Snow Light Snow
11:35 AM 35.1 °F - 32.5 °F 91% 29.99 in 3.0 mi Calm Calm - 0.04 in Snow Light Snow
11:55 AM 34.9 °F - 32.5 °F 91% 29.98 in 3.0 mi Calm Calm - 0.04 in Snow Light Snow
12:15 PM 35.2 °F 32.4 °F 32.9 °F 91% 29.96 in 5.0 mi NNW 3.5 mph - N/A Snow Light Snow
12:35 PM 35.2 °F 32.4 °F 32.9 °F 91% 29.94 in 3.0 mi NNW 3.5 mph - N/A Rain Light Rain
12:55 PM 35.2 °F 32.4 °F 33.1 °F 92% 29.93 in 3.0 mi NNW 3.5 mph - 0.01 in Rain Light Rain
1:15 PM 35.1 °F - 32.9 °F 92% 29.92 in 3.0 mi Calm Calm - 0.01 in Snow Light Snow
1:35 PM 35.1 °F 32.2 °F 33.1 °F 92% 29.91 in 2.5 mi NNW 3.5 mph - 0.02 in Snow Light Snow
1:55 PM 35.1 °F 32.2 °F 33.3 °F 93% 29.90 in 2.0 mi NNW 3.5 mph - 0.03 in Rain Rain
2:15 PM 35.2 °F 32.4 °F 33.4 °F 93% 29.88 in 1.5 mi NW 3.5 mph - 0.02 in Rain Rain
2:35 PM 35.2 °F - 33.4 °F 93% 29.90 in 1.5 mi Calm Calm - 0.05 in Rain Rain
2:55 PM 35.1 °F - 33.3 °F 93% 29.90 in 1.8 mi Calm Calm - 0.06 in Snow Light Snow
3:15 PM 35.1 °F - 33.4 °F 94% 29.89 in 2.0 mi Calm Calm - 0.01 in Snow Light Snow
3:35 PM 35.2 °F - 33.8 °F 94% 29.89 in 2.0 mi Calm Calm - 0.01 in Snow Light Snow
3:55 PM 35.6 °F - 33.8 °F 93% 29.90 in 3.0 mi Calm Calm - 0.02 in   Overcast
4:15 PM 35.2 °F - 33.8 °F 94% 29.90 in 2.5 mi Calm Calm - N/A   Overcast
4:35 PM 35.2 °F - 33.4 °F 93% 29.90 in 1.5 mi Calm Calm - N/A   Light Drizzle
4:55 PM 35.4 °F - 33.8 °F 94% 29.88 in 1.2 mi Calm Calm - N/A   Light Drizzle
5:15 PM 35.1 °F - 33.6 °F 94% 29.88 in 1.2 mi Calm Calm - N/A   Light Drizzle
5:35 PM 34.9 °F - 33.4 °F 94% 29.88 in 1.2 mi Calm Calm - N/A   Overcast
5:55 PM 34.9 °F - 33.4 °F 94% 29.88 in 1.0 mi Calm Calm - N/A   Overcast
6:15 PM 35.1 °F - 33.8 °F 95% 29.88 in 1.8 mi Calm Calm - N/A   Overcast
6:35 PM 34.9 °F - 33.4 °F 94% 29.88 in 1.2 mi Calm Calm - N/A   Overcast
6:55 PM 35.1 °F - 33.8 °F 95% 29.88 in 1.8 mi Calm Calm - N/A   Overcast
7:15 PM 35.1 °F - 33.8 °F 95% 29.90 in 1.8 mi Calm Calm - N/A   Overcast
7:35 PM 35.1 °F - 33.8 °F 95% 29.89 in 1.5 mi Calm Calm - N/A   Overcast
7:55 PM 35.1 °F - 33.8 °F 95% 29.88 in 1.5 mi Calm Calm - N/A   Overcast
8:15 PM 35.1 °F - 33.8 °F 95% 29.88 in 1.5 mi Calm Calm - N/A   Overcast
8:35 PM 35.1 °F - 33.8 °F 95% 29.89 in 1.2 mi Calm Calm - N/A   Overcast
8:55 PM 35.2 °F - 34.0 °F 95% 29.89 in 1.5 mi Calm Calm - N/A   Overcast
9:15 PM 35.2 °F - 34.0 °F 95% 29.88 in 1.8 mi Calm Calm - N/A   Overcast
9:35 PM 35.2 °F - 34.0 °F 95% 29.89 in 1.2 mi Calm Calm - N/A   Overcast
9:55 PM 35.6 °F 32.8 °F 34.2 °F 94% 29.89 in 1.8 mi South 3.5 mph - N/A   Overcast
10:15 PM 35.6 °F - 34.3 °F 95% 29.90 in 2.0 mi Calm Calm - N/A   Overcast
10:35 PM 35.6 °F - 34.3 °F 95% 29.89 in 1.8 mi Calm Calm - N/A   Overcast
10:55 PM 35.6 °F - 34.3 °F 95% 29.88 in 1.8 mi Calm Calm - N/A   Overcast
11:15 PM 35.6 °F - 34.3 °F 95% 29.89 in 1.8 mi Calm Calm - N/A   Overcast
11:35 PM 35.6 °F - 34.2 °F 94% 29.89 in 2.0 mi Calm Calm - N/A   Overcast
11:55 PM 35.6 °F - 34.0 °F 94% 29.89 in 1.5 mi Calm Calm - N/A   Overcast